314  
ASUS44 KSHV 280810  
RWRSHV  
 
WEATHER ROUNDUP FOR THE FOUR STATE AREA  
NATIONAL WEATHER SERVICE SHREVEPORT LA  
300 AM CDT SUN MAY 28 2017  
 
NOTE: "FAIR" INDICATES FEW OR NO CLOUDS BELOW 12000 FEET  
WITH NO SIGNIFICANT WEATHER AND/OR S TO VISIBILITY
.  
 
!LAZ001-LAZ014-TXZ097-280900  
SHREVEPORT...MONROE...TEXARKANA RADIOS  
 
CITY SKY/WX TMP DP RH WIND PRES REMARKS
 
SHREVEPORT CLOUDY 77 72 84 S14G23 29.80F  
MONROE CLOUDY 76 72 87 S3 29.87R  
NATCHITOCHES MOCLDY 75 73 94 S7 29.86F  
TEXARKANA LGT RAIN 67 67 100 NW6 29.90R  

 
 
!LAZ001-LAZ014-TXZ097-280900  
OTHER LOCATIONS...  
 
CITY SKY/WX TMP DP RH WIND PRES REMARKS
 
DOWNTOWN SHV MOCLDY 78 71 79 S12G22 29.80F  
BOSSIER CITY MOCLDY 77 72 83 S12G18 29.81F  
RUSTON CLOUDY 76 71 83 S5 29.89S  
LITTLE ROCK TSTM 64 64 100 NE14 29.90S FOG  
EL DORADO CLOUDY 74 72 93 SE9 29.83F  
JACKSON CLOUDY 73 71 93 S8 29.90F  
NEW ORLEANS MOCLDY 77 75 93 S6 29.92F  
HOUSTON CLOUDY 82 74 76 S8 29.86F  
LUFKIN PTCLDY 76 73 91 S7 29.85F  
TYLER CLOUDY 76 74 93 S15 29.79F  
DAL FT WORTH MOCLDY 81 73 76 S14 29.71F  

 
 
!TXZ136-TXZ165-280900  
TYLER...LUFKIN RADIOS  
 
CITY SKY/WX TMP DP RH WIND PRES REMARKS
 
TYLER CLOUDY 76 74 93 S15 29.79F  
GILMER CLOUDY 76 72 87 S7 29.80R  
LONGVIEW MOCLDY 76 73 91 S18G25 29.78F  
LUFKIN PTCLDY 76 73 91 S7 29.85F  

 
 
!TXZ136-TXZ165-280900  
OTHER LOCATIONS...  
 
CITY SKY/WX TMP DP RH WIND PRES REMARKS
 
NACOGDOCHES MOCLDY 75 72 88 S8 29.83F  
BEAUMONT CLOUDY 80 75 84 SW8 29.88R  
HOUSTON CLOUDY 82 74 76 S8 29.86F  
COLLEGE STN CLOUDY 76 74 93 S13 29.81F  
AUSTIN MOCLDY 77 73 87 S13 29.79F  
DAL FT WORTH MOCLDY 81 73 76 S14 29.71F  
TEXARKANA LGT RAIN 67 67 100 NW6 29.90R  
SHREVEPORT CLOUDY 77 72 84 S14G23 29.80F  
FORT POLK CLOUDY 77 75 94 S6 29.88R  
LAKE CHARLES CLOUDY 81 77 88 S8 29.88R  

 
 
 
CLICK HERE TO GO TO PREVIOUS BULLETINS.

The Nexlab LA Page
The Nexlab TX Page
The Nexlab AR Page
The Nexlab OK Page Main Text Page